Вернуться в каталог

FENGYUN 1C DEB

АктивенPO
NORAD 31416·DEBRIS·🇨🇳 China

Запущен May 10, 1999 с Taiyuan Satellite Launch Center

Loading…

Ближайшие Пролёты (ближайшие 24 часа)

TLE

СвежийSource: Space-Track

Эпоха: Sep 14, 2026, 10:41 UTC

1 31416U 99025BTC 26257.44520183  .00000658  00000-0  19839-3 0  9991
2 31416  99.0182 328.1690 0133389 156.5793 204.1547 14.41159297694902

Отслеживайте FENGYUN 1C DEB в реальном времени с AllMySat

Download on the App Store